Fourier

operational
NORAD ID: 65298 Int'l Des: 2025-185 Owner: ESPACE Country: RW
LEOCIRCULARRETROGRADESSO

About Fourier

Description loading...

Live Position

Loading 3D Globe...

Upcoming Passes

Altitude History

Altitude vs Time

uPlot chart will show altitude changes over time

Two-Line Element Set

1 65298U 25185B 25312.67278391 .00024465 00000-0 37717-2 0 9995
2 65298 97.9686 33.8936 0013550 82.3802 277.8945 14.73313159 11298
Epoch: Nov 8, 2025 • Age: 42 hours

Current Status

Altitude 685.1 km
Velocity 7.51 km/s
Sub-Earth Point -71.97°S, 141.74°W
Launch Date Aug 23, 2025
Age 0.2 years
Type other

Technical Details

Classification Payload
Mass 30.00 kg
Dry Mass 30.00 kg
Total Mass 30.00 kg
Length 0.60 m
Diameter 0.40 m
Span 2.00 m
Shape Box+ pan
Manufacturer ESPACE
Bus Type Calistus
Phase Status In Orbit
Owner/State ESPACE/RW

Large Constellations

Loading constellations...